Location: Rometta
(44.2000°N, 10.0500°E)
Time: 11:37:02
(UTC+00:00)

CSL-04 Rocket - Pass Details

Date: 20 January 2021
Orbit: 806 x 860 km, 98.9° (Epoch: 06 March)

Event Time Altitude Azimuth Distance (km) Brightness Sun altitude
Rises 18:30:17 0° 167° (SSE) 3,343 6.7 -24.2°
Reaches altitude 10° 18:32:36 10° 169° (S) 2,422 6.0 -24.6°
Maximum altitude 18:37:59 79° 256° (WSW) 856 3.7 -25.6°
Drops below altitude 10° 18:43:29 10° 343° (NNW) 2,475 6.3 -26.6°
Sets 18:45:53 0° 345° (NNW) 3,422 7.0 -27.0°
